NOAA 21 (JPSS-2)

Last updated on Mon Jul 07 2025 00:02:21 GMT+0000 (Coordinated Universal Time)

1 54234U 22150A 25187.58933422 .00000036 00000+0 37639-4 0 9997 2 54234 98.7273 126.0729 0002748 91.7353 268.4137 14.19542694137515
UTC large
Height (km)
Speed (km/s)
/
Latitude / Longitude
Inclination (degrees)
Orbital Period (minutes)
Azimuth
Elevation
Range (km)
Doppler Factor

Next 0 passes for location: London (51.5072 / 0.1276)

Sorry there are no passes over London.